• In Czech Republic
  • List of Countries
  • For 7 days
  • Water Temperature
  • Satellite Maps
  • Weather Map
  • Weather Widgets
  • user-avatar
    Login

    Hourly Weather San Luis

    Today, 22 May, Tuesday

    Time Temperature Precipitation Wind Pressure Humidity
    00:00 +9°C° 0 mm 2 mps 702 mmHg 57%
    01:00 +9°C° 0 mm 2 mps 702 mmHg 59%
    02:00 +8°C° 0 mm 2 mps 702 mmHg 60%
    03:00 +8°C° 0 mm 2 mps 702 mmHg 61%
    04:00 +9°C° 0 mm 1 mps 702 mmHg 61%
    05:00 +9°C° 0 mm 1 mps 702 mmHg 62%
    06:00 +9°C° 0 mm 1 mps 702 mmHg 59%
    07:00 +9°C° 0 mm 2 mps 703 mmHg 57%
    08:00 +9°C° 0 mm 2 mps 703 mmHg 54%
    09:00 +13°C° 0 mm 2 mps 704 mmHg 48%
    10:00 +15°C° 0 mm 2 mps 704 mmHg 41%
    11:00 +17°C° 0 mm 2 mps 705 mmHg 34%
    12:00 +18°C° 0 mm 2 mps 704 mmHg 33%
    13:00 +19°C° 0 mm 2 mps 704 mmHg 33%
    14:00 +19°C° 0 mm 3 mps 703 mmHg 32%
    15:00 +19°C° 0 mm 3 mps 703 mmHg 35%
    16:00 +18°C° 0 mm 3 mps 702 mmHg 39%
    17:00 +17°C° 0 mm 3 mps 702 mmHg 42%
    18:00 +16°C° 0 mm 3 mps 702 mmHg 48%
    19:00 +13°C° 0 mm 3 mps 702 mmHg 53%
    20:00 +12°C° 0 mm 3 mps 702 mmHg 59%
    21:00 +12°C° 0 mm 4 mps 702 mmHg 60%
    22:00 +11°C° 0 mm 4 mps 702 mmHg 62%
    23:00 +11°C° 0 mm 4 mps 702 mmHg 63%

    Tomorrow, 23 May, Wednesday

    Time Temperature Precipitation Wind Pressure Humidity
    00:00 +11°C° 0 mm 4 mps 702 mmHg 63%
    01:00 +10°C° 0 mm 5 mps 702 mmHg 64%
    02:00 +10°C° 0 mm 5 mps 702 mmHg 64%
    03:00 +9°C° 0 mm 5 mps 701 mmHg 64%
    04:00 +9°C° 0 mm 5 mps 701 mmHg 64%
    05:00 +9°C° 0 mm 5 mps 701 mmHg 64%
    06:00 +9°C° 0 mm 5 mps 701 mmHg 64%
    07:00 +10°C° 0 mm 4 mps 702 mmHg 64%
    08:00 +10°C° 0 mm 4 mps 702 mmHg 65%
    09:00 +12°C° 0 mm 5 mps 703 mmHg 59%
    10:00 +15°C° 0 mm 5 mps 704 mmHg 53%
    11:00 +17°C° 0 mm 5 mps 704 mmHg 48%
    12:00 +19°C° 0 mm 5 mps 704 mmHg 46%
    13:00 +19°C° 0 mm 5 mps 704 mmHg 44%
    14:00 +20°C° 0 mm 4 mps 703 mmHg 42%
    15:00 +19°C° 0 mm 4 mps 703 mmHg 45%
    16:00 +19°C° 0 mm 4 mps 703 mmHg 47%
    17:00 +18°C° 0 mm 3 mps 703 mmHg 50%
    18:00 +16°C° 0 mm 3 mps 703 mmHg 55%
    19:00 +14°C° 0 mm 3 mps 703 mmHg 61%
    20:00 +13°C° 0 mm 2 mps 703 mmHg 66%
    21:00 +12°C° 0 mm 3 mps 704 mmHg 67%
    22:00 +12°C° 0 mm 3 mps 704 mmHg 68%
    23:00 +11°C° 0 mm 3 mps 704 mmHg 69%

    Day after tomorrow, 24 May, Thursday

    Time Temperature Precipitation Wind Pressure Humidity
    00:00 +11°C° 0 mm 3 mps 704 mmHg 71%
    01:00 +11°C° 0 mm 4 mps 704 mmHg 72%
    02:00 +11°C° 0 mm 4 mps 703 mmHg 73%
    03:00 +11°C° 0 mm 4 mps 703 mmHg 75%
    04:00 +11°C° 0 mm 4 mps 703 mmHg 76%
    05:00 +10°C° 0 mm 4 mps 702 mmHg 77%
    06:00 +11°C° 0 mm 4 mps 703 mmHg 77%
    07:00 +11°C° 0 mm 4 mps 703 mmHg 77%
    08:00 +11°C° 0 mm 4 mps 703 mmHg 76%
    09:00 +13°C° 0 mm 5 mps 703 mmHg 67%
    10:00 +15°C° 0 mm 6 mps 704 mmHg 58%
    11:00 +19°C° 0 mm 6 mps 704 mmHg 50%
    12:00 +19°C° 0 mm 6 mps 703 mmHg 46%
    13:00 +20°C° 0 mm 6 mps 703 mmHg 43%
    14:00 +21°C° 0 mm 6 mps 702 mmHg 40%
    15:00 +20°C° 0 mm 6 mps 701 mmHg 43%
    16:00 +19°C° 0 mm 5 mps 701 mmHg 46%
    17:00 +19°C° 0 mm 5 mps 701 mmHg 49%
    18:00 +16°C° 0 mm 5 mps 701 mmHg 54%
    19:00 +15°C° 0 mm 5 mps 701 mmHg 59%
    20:00 +13°C° 0 mm 5 mps 701 mmHg 65%
    21:00 +13°C° 0 mm 5 mps 701 mmHg 64%
    22:00 +13°C° 0 mm 6 mps 701 mmHg 64%
    23:00 +13°C° 0 mm 6 mps 701 mmHg 63%

    25 May, Friday

    Time Temperature Precipitation Wind Pressure Humidity
    00:00 +13°C° 0 mm 6 mps 701 mmHg 65%
    01:00 +11°C° 0 mm 6 mps 701 mmHg 66%
    02:00 +11°C° 0 mm 6 mps 701 mmHg 68%
    03:00 +11°C° 0 mm 6 mps 700 mmHg 69%
    04:00 +11°C° 0 mm 6 mps 700 mmHg 71%
    05:00 +10°C° 0 mm 6 mps 700 mmHg 72%
    06:00 +11°C° 0 mm 6 mps 700 mmHg 70%
    07:00 +11°C° 0 mm 6 mps 700 mmHg 68%
    08:00 +11°C° 0 mm 6 mps 701 mmHg 67%
    09:00 +14°C° 0 mm 6 mps 701 mmHg 58%
    10:00 +16°C° 0 mm 7 mps 701 mmHg 50%
    11:00 +20°C° 0 mm 7 mps 702 mmHg 41%
    12:00 +21°C° 0 mm 6 mps 701 mmHg 39%
    13:00 +21°C° 0 mm 6 mps 700 mmHg 37%
    14:00 +22°C° 0 mm 6 mps 700 mmHg 34%
    15:00 +21°C° 0 mm 6 mps 699 mmHg 37%
    16:00 +20°C° 0 mm 5 mps 699 mmHg 40%
    17:00 +19°C° 0 mm 5 mps 698 mmHg 42%
    18:00 +17°C° 0 mm 5 mps 698 mmHg 46%
    19:00 +16°C° 0 mm 5 mps 698 mmHg 50%
    20:00 +14°C° 0 mm 5 mps 698 mmHg 54%
    21:00 +14°C° 0 mm 6 mps 698 mmHg 54%
    22:00 +14°C° 0 mm 6 mps 697 mmHg 53%
    23:00 +12°C° 0 mm 7 mps 697 mmHg 53%

    26 May, Saturday

    Time Temperature Precipitation Wind Pressure Humidity
    00:00 +12°C° 0 mm 7 mps 697 mmHg 54%
    01:00 +12°C° 0 mm 7 mps 697 mmHg 54%
    02:00 +12°C° 0 mm 7 mps 696 mmHg 54%
    03:00 +12°C° 0 mm 7 mps 696 mmHg 55%
    04:00 +11°C° 0 mm 7 mps 696 mmHg 56%
    05:00 +11°C° 0 mm 6 mps 695 mmHg 57%
    06:00 +11°C° 0 mm 6 mps 696 mmHg 56%
    07:00 +13°C° 0 mm 6 mps 696 mmHg 55%
    08:00 +13°C° 0 mm 6 mps 696 mmHg 55%
    09:00 +15°C° 0 mm 6 mps 696 mmHg 48%
    10:00 +17°C° 0 mm 7 mps 697 mmHg 42%
    11:00 +21°C° 0 mm 7 mps 697 mmHg 35%
    12:00 +22°C° 0 mm 7 mps 697 mmHg 33%
    13:00 +23°C° 0 mm 6 mps 696 mmHg 31%
    14:00 +23°C° 0 mm 6 mps 696 mmHg 29%
    15:00 +22°C° 0 mm 5 mps 696 mmHg 33%
    16:00 +21°C° 0 mm 4 mps 696 mmHg 37%
    17:00 +20°C° 0 mm 3 mps 696 mmHg 42%
    18:00 +18°C° 0 mm 3 mps 696 mmHg 46%
    19:00 +17°C° 0 mm 3 mps 697 mmHg 50%
    20:00 +14°C° 0 mm 3 mps 697 mmHg 54%
    21:00 +15°C° 0 mm 2 mps 697 mmHg 57%
    22:00 +14°C° 0 mm 2 mps 698 mmHg 59%
    23:00 +14°C° 0 mm 2 mps 698 mmHg 62%

    27 May, Sunday

    Time Temperature Precipitation Wind Pressure Humidity
    00:00 +14°C° 0 mm 2 mps 698 mmHg 63%
    01:00 +13°C° 0 mm 2 mps 697 mmHg 65%
    02:00 +13°C° 0 mm 2 mps 697 mmHg 66%
    03:00 +13°C° 0 mm 2 mps 697 mmHg 69%
    04:00 +12°C° 0 mm 2 mps 697 mmHg 71%
    05:00 +12°C° 0 mm 1 mps 697 mmHg 74%
    06:00 +12°C° 0 mm 2 mps 697 mmHg 73%
    07:00 +13°C° 0 mm 2 mps 697 mmHg 72%
    08:00 +13°C° 0 mm 2 mps 697 mmHg 72%
    09:00 +16°C° 0 mm 3 mps 697 mmHg 63%
    10:00 +18°C° 0 mm 4 mps 697 mmHg 54%
    11:00 +21°C° 0 mm 5 mps 698 mmHg 45%
    12:00 +22°C° 0 mm 5 mps 697 mmHg 42%
    13:00 +23°C° 0 mm 6 mps 696 mmHg 39%
    14:00 +24°C° 0 mm 6 mps 695 mmHg 36%
    15:00 +23°C° 0 mm 6 mps 694 mmHg 40%
    16:00 +22°C° 0 mm 5 mps 694 mmHg 45%
    17:00 +21°C° 0 mm 4 mps 693 mmHg 49%
    18:00 +19°C° 0 mm 4 mps 693 mmHg 55%
    19:00 +18°C° 0 mm 4 mps 693 mmHg 62%
    20:00 +17°C° 0 mm 3 mps 693 mmHg 69%
    21:00 +17°C° 0 mm 4 mps 693 mmHg 71%
    22:00 +15°C° 0 mm 4 mps 693 mmHg 74%
    23:00 +15°C° 0 mm 5 mps 693 mmHg 76%
    Show more